Time,TemperatureF,DewpointF,PressureIn,WindDirection,WindDirectionDegrees,WindSpeedMPH,WindSpeedGustMPH,Humidity,HourlyPrecipIn,Conditions,Clouds,dailyrainin,SoftwareType,DateUTC
2013-01-12 00:03:00,83.0,77.0,30.08,North,360,0.0,0.0,83,0.00,,,0.00,,2013-01-12 05:03:00,
2013-01-12 00:12:00,83.0,77.0,30.08,North,360,0.0,0.0,83,0.00,,,0.00,,2013-01-12 05:12:00,
2013-01-12 00:22:00,82.0,76.0,30.07,North,360,0.0,0.0,83,0.00,,,0.00,,2013-01-12 05:22:00,
2013-01-12 00:32:00,82.0,77.0,30.07,North,360,0.0,0.0,84,0.00,,,0.00,,2013-01-12 05:32:00,
2013-01-12 00:42:00,82.0,77.0,30.07,North,360,0.0,0.0,84,0.00,,,0.00,,2013-01-12 05:42:00,
2013-01-12 00:53:00,81.0,76.0,30.06,North,360,0.0,0.0,85,0.00,,,0.00,,2013-01-12 05:53:00,
2013-01-12 01:02:00,81.0,76.0,30.06,North,360,0.0,0.0,86,0.00,,,0.00,,2013-01-12 06:02:00,
2013-01-12 01:12:00,81.0,76.0,30.06,North,360,0.0,0.0,86,0.00,,,0.00,,2013-01-12 06:12:00,
2013-01-12 01:22:00,80.0,76.0,30.06,North,360,0.0,0.0,87,0.00,,,0.00,,2013-01-12 06:22:00,
2013-01-12 01:33:00,80.0,76.0,30.06,North,360,0.0,0.0,88,0.00,,,0.00,,2013-01-12 06:33:00,
2013-01-12 01:42:00,80.0,76.0,30.06,North,360,0.0,0.0,88,0.00,,,0.00,,2013-01-12 06:42:00,
2013-01-12 01:53:00,80.0,76.0,30.05,North,360,0.0,0.0,88,0.00,,,0.00,,2013-01-12 06:53:00,
2013-01-12 02:02:00,80.0,76.0,30.05,North,360,0.0,0.0,89,0.00,,,0.00,,2013-01-12 07:02:00,
2013-01-12 02:12:00,79.0,75.0,30.05,North,360,0.0,0.0,89,0.00,,,0.00,,2013-01-12 07:12:00,
2013-01-12 02:22:00,79.0,75.0,30.05,North,360,0.0,0.0,89,0.00,,,0.00,,2013-01-12 07:22:00,
2013-01-12 02:32:00,79.0,76.0,30.05,North,360,0.0,0.0,90,0.00,,,0.00,,2013-01-12 07:32:00,
2013-01-12 02:42:00,79.0,76.0,30.05,North,360,0.0,0.0,90,0.00,,,0.00,,2013-01-12 07:42:00,
2013-01-12 02:53:00,79.0,76.0,30.04,North,360,0.0,0.0,90,0.00,,,0.00,,2013-01-12 07:53:00,
2013-01-12 03:02:00,79.0,76.0,30.04,North,360,0.0,0.0,91,0.00,,,0.00,,2013-01-12 08:02:00,
2013-01-12 03:12:00,79.0,76.0,30.04,North,360,0.0,0.0,91,0.00,,,0.00,,2013-01-12 08:12:00,
2013-01-12 03:22:00,78.0,75.0,30.04,North,360,0.0,0.0,91,0.00,,,0.00,,2013-01-12 08:22:00,
2013-01-12 03:32:00,78.0,75.0,30.04,North,360,0.0,0.0,91,0.00,,,0.00,,2013-01-12 08:32:00,
2013-01-12 03:42:00,78.0,75.0,30.04,North,360,0.0,0.0,91,0.00,,,0.00,,2013-01-12 08:42:00,
2013-01-12 03:53:00,78.0,75.0,30.04,North,360,0.0,0.0,91,0.00,,,0.00,,2013-01-12 08:53:00,
2013-01-12 04:02:00,78.0,75.0,30.03,North,360,0.0,0.0,92,0.00,,,0.00,,2013-01-12 09:02:00,
2013-01-12 04:12:00,78.0,75.0,30.03,North,360,0.0,0.0,92,0.00,,,0.00,,2013-01-12 09:12:00,
2013-01-12 04:22:00,66.0,64.0,30.03,North,360,0.0,0.0,94,0.00,,,0.00,,2013-01-12 09:22:00,
2013-01-12 04:32:00,66.0,64.0,30.03,North,360,0.0,0.0,94,0.00,,,0.00,,2013-01-12 09:32:00,
2013-01-12 04:42:00,66.0,64.0,30.03,North,360,0.0,0.0,94,0.00,,,0.00,,2013-01-12 09:42:00,
2013-01-12 04:53:00,66.0,65.0,30.03,North,360,0.0,0.0,95,0.00,,,0.00,,2013-01-12 09:53:00,
2013-01-12 05:02:00,66.0,65.0,30.03,North,360,0.0,0.0,95,0.00,,,0.00,,2013-01-12 10:02:00,
2013-01-12 05:12:00,66.0,65.0,30.03,North,360,0.0,0.0,95,0.00,,,0.00,,2013-01-12 10:12:00,
2013-01-12 05:22:00,65.0,64.0,30.03,South,171,0.0,0.0,95,0.00,,,0.00,,2013-01-12 10:22:00,
2013-01-12 05:32:00,65.0,64.0,30.02,North,360,0.0,0.0,95,0.00,,,0.00,,2013-01-12 10:32:00,
2013-01-12 05:42:00,65.0,64.0,30.02,North,360,0.0,0.0,95,0.00,,,0.00,,2013-01-12 10:42:00,
2013-01-12 05:52:00,65.0,64.0,30.02,North,360,0.0,0.0,95,0.00,,,0.00,,2013-01-12 10:52:00,
2013-01-12 06:02:00,65.0,64.0,30.02,North,360,0.0,0.0,95,0.01,,,0.01,,2013-01-12 11:02:00,
2013-01-12 06:12:00,64.0,63.0,30.03,North,360,0.0,0.0,96,0.01,,,0.01,,2013-01-12 11:12:00,
2013-01-12 06:22:00,64.0,63.0,30.03,North,360,0.0,0.0,96,0.01,,,0.01,,2013-01-12 11:22:00,
2013-01-12 06:32:00,64.0,63.0,30.03,North,360,0.0,0.0,96,0.01,,,0.01,,2013-01-12 11:32:00,
2013-01-12 06:42:00,64.0,63.0,30.03,North,360,0.0,0.0,96,0.01,,,0.01,,2013-01-12 11:42:00,
2013-01-12 06:53:00,64.0,63.0,30.03,North,360,0.0,0.0,96,0.01,,,0.01,,2013-01-12 11:53:00,
2013-01-12 07:03:00,64.0,63.0,30.04,North,360,0.0,0.0,96,0.00,,,0.01,,2013-01-12 12:03:00,
2013-01-12 07:12:00,64.0,63.0,30.04,North,360,0.0,0.0,96,0.00,,,0.01,,2013-01-12 12:12:00,
2013-01-12 07:22:00,64.0,63.0,30.04,North,360,0.0,0.0,96,0.00,,,0.01,,2013-01-12 12:22:00,
2013-01-12 07:32:00,64.0,63.0,30.05,North,360,0.0,0.0,97,0.00,,,0.01,,2013-01-12 12:32:00,
2013-01-12 07:42:00,64.0,63.0,30.05,North,360,0.0,0.0,97,0.00,,,0.01,,2013-01-12 12:42:00,
2013-01-12 07:53:00,63.0,62.0,30.05,North,360,0.0,0.0,97,0.00,,,0.01,,2013-01-12 12:53:00,
2013-01-12 08:02:00,63.0,62.0,30.05,North,360,0.0,0.0,97,0.00,,,0.01,,2013-01-12 13:02:00,
2013-01-12 08:12:00,63.0,62.0,30.05,North,360,0.0,0.0,97,0.00,,,0.01,,2013-01-12 13:12:00,
2013-01-12 08:23:00,63.0,62.0,30.05,North,360,0.0,0.0,97,0.00,,,0.01,,2013-01-12 13:23:00,
2013-01-12 08:33:00,64.0,63.0,30.06,North,360,0.0,0.0,98,0.00,,,0.01,,2013-01-12 13:33:00,
2013-01-12 08:42:00,64.0,63.0,30.06,North,360,0.0,0.0,98,0.00,,,0.01,,2013-01-12 13:42:00,
2013-01-12 08:53:00,64.0,63.0,30.06,North,360,0.0,0.0,98,0.00,,,0.01,,2013-01-12 13:53:00,
2013-01-12 09:02:00,65.0,64.0,30.06,NNE,12,1.0,1.0,98,0.00,,,0.01,,2013-01-12 14:02:00,
2013-01-12 09:12:00,65.0,64.0,30.06,NNE,12,1.0,1.0,98,0.00,,,0.01,,2013-01-12 14:12:00,
2013-01-12 09:22:00,66.0,65.0,30.06,North,360,0.0,0.0,98,0.00,,,0.01,,2013-01-12 14:22:00,
2013-01-12 09:33:00,67.0,66.0,30.06,North,360,0.0,0.0,95,0.00,,,0.01,,2013-01-12 14:33:00,
2013-01-12 09:43:00,67.0,66.0,30.06,North,360,0.0,0.0,95,0.00,,,0.01,,2013-01-12 14:43:00,
2013-01-12 09:53:00,69.0,67.0,30.07,SSW,209,1.0,2.0,93,0.01,,,0.02,,2013-01-12 14:53:00,
2013-01-12 10:03:00,70.0,67.0,30.07,South,183,0.0,1.0,91,0.01,,,0.02,,2013-01-12 15:03:00,
2013-01-12 10:12:00,71.0,67.0,30.07,NE,54,0.0,0.0,86,0.01,,,0.02,,2013-01-12 15:12:00,
2013-01-12 10:22:00,71.0,67.0,30.07,NE,54,0.0,0.0,86,0.01,,,0.02,,2013-01-12 15:22:00,
2013-01-12 10:33:00,72.0,67.0,30.07,NE,52,1.0,4.0,84,0.01,,,0.02,,2013-01-12 15:33:00,
2013-01-12 10:43:00,72.0,67.0,30.07,NE,52,1.0,4.0,84,0.01,,,0.02,,2013-01-12 15:43:00,
2013-01-12 10:53:00,73.0,67.0,30.06,South,174,0.0,3.0,82,0.00,,,0.02,,2013-01-12 15:53:00,
2013-01-12 11:03:00,73.0,66.0,30.06,South,186,1.0,4.0,80,0.00,,,0.02,,2013-01-12 16:03:00,
2013-01-12 11:12:00,73.0,66.0,30.06,South,186,1.0,4.0,80,0.00,,,0.02,,2013-01-12 16:12:00,
2013-01-12 11:23:00,74.0,67.0,30.06,South,169,2.0,2.0,79,0.00,,,0.02,,2013-01-12 16:23:00,
2013-01-12 11:33:00,74.0,66.0,30.05,South,184,3.0,3.0,77,0.00,,,0.02,,2013-01-12 16:33:00,
2013-01-12 11:42:00,76.0,68.0,30.04,NNE,16,1.0,4.0,76,0.00,,,0.02,,2013-01-12 16:42:00,
2013-01-12 11:53:00,76.0,68.0,30.04,NNE,16,1.0,4.0,76,0.00,,,0.02,,2013-01-12 16:53:00,
2013-01-12 12:02:00,77.0,68.0,30.03,SSW,203,1.0,1.0,74,0.00,,,0.02,,2013-01-12 17:02:00,
2013-01-12 12:12:00,77.0,68.0,30.03,SSW,203,1.0,1.0,74,0.00,,,0.02,,2013-01-12 17:12:00,
2013-01-12 12:23:00,78.0,68.0,30.03,South,186,1.0,2.0,72,0.00,,,0.02,,2013-01-12 17:23:00,
2013-01-12 12:33:00,79.0,68.0,30.02,WSW,244,0.0,1.0,70,0.00,,,0.02,,2013-01-12 17:33:00,
2013-01-12 12:43:00,79.0,68.0,30.02,WSW,244,0.0,1.0,70,0.00,,,0.02,,2013-01-12 17:43:00,
2013-01-12 12:53:00,78.0,67.0,30.01,South,182,4.0,7.0,70,0.00,,,0.02,,2013-01-12 17:53:00,
2013-01-12 13:03:00,78.0,67.0,30.01,South,174,2.0,5.0,69,0.00,,,0.02,,2013-01-12 18:03:00,
2013-01-12 13:12:00,78.0,67.0,30.01,South,174,2.0,5.0,69,0.00,,,0.02,,2013-01-12 18:12:00,
2013-01-12 13:23:00,79.0,67.0,30.00,SSW,197,1.0,1.0,67,0.00,,,0.02,,2013-01-12 18:23:00,
2013-01-12 13:33:00,80.0,67.0,30.00,SE,135,1.0,1.0,65,0.00,,,0.02,,2013-01-12 18:33:00,
2013-01-12 13:42:00,80.0,67.0,30.00,SE,135,1.0,1.0,65,0.00,,,0.02,,2013-01-12 18:42:00,
2013-01-12 13:53:00,81.0,67.0,29.99,South,177,3.0,3.0,63,0.00,,,0.02,,2013-01-12 18:53:00,
2013-01-12 14:03:00,80.0,66.0,29.99,NE,35,3.0,3.0,63,0.00,,,0.02,,2013-01-12 19:03:00,
2013-01-12 14:12:00,80.0,66.0,29.99,NE,35,3.0,3.0,63,0.00,,,0.02,,2013-01-12 19:12:00,
2013-01-12 14:23:00,81.0,67.0,29.99,NNE,24,0.0,4.0,62,0.00,,,0.02,,2013-01-12 19:23:00,
2013-01-12 14:33:00,81.0,65.0,29.98,South,178,4.0,4.0,58,0.00,,,0.02,,2013-01-12 19:33:00,
2013-01-12 14:43:00,81.0,65.0,29.98,South,178,4.0,4.0,58,0.00,,,0.02,,2013-01-12 19:43:00,
2013-01-12 14:53:00,81.0,65.0,29.98,South,171,0.0,2.0,59,0.00,,,0.02,,2013-01-12 19:53:00,
2013-01-12 15:03:00,81.0,65.0,29.98,North,360,0.0,0.0,59,0.00,,,0.02,,2013-01-12 20:03:00,
2013-01-12 15:12:00,81.0,65.0,29.98,North,360,0.0,3.0,58,0.00,,,0.02,,2013-01-12 20:12:00,
2013-01-12 15:22:00,81.0,65.0,29.98,North,360,0.0,3.0,58,0.00,,,0.02,,2013-01-12 20:22:00,
2013-01-12 15:33:00,81.0,64.0,29.98,SE,129,1.0,2.0,56,0.00,,,0.02,,2013-01-12 20:33:00,
2013-01-12 15:42:00,81.0,64.0,29.98,SE,129,1.0,2.0,56,0.00,,,0.02,,2013-01-12 20:42:00,
2013-01-12 15:53:00,81.0,64.0,29.98,South,185,0.0,3.0,56,0.00,,,0.02,,2013-01-12 20:53:00,
2013-01-12 16:03:00,80.0,63.0,29.99,North,360,0.0,0.0,57,0.00,,,0.02,,2013-01-12 21:03:00,
2013-01-12 16:12:00,80.0,63.0,29.99,North,360,0.0,0.0,57,0.00,,,0.02,,2013-01-12 21:12:00,
2013-01-12 16:22:00,80.0,63.0,29.99,North,360,0.0,0.0,57,0.00,,,0.02,,2013-01-12 21:22:00,
2013-01-12 16:33:00,80.0,65.0,29.99,North,360,0.0,0.0,61,0.00,,,0.02,,2013-01-12 21:33:00,
2013-01-12 16:43:00,80.0,65.0,29.99,North,360,0.0,0.0,61,0.00,,,0.02,,2013-01-12 21:43:00,
2013-01-12 16:53:00,78.0,66.0,30.00,WNW,284,0.0,0.0,66,0.00,,,0.02,,2013-01-12 21:53:00,
2013-01-12 17:03:00,77.0,66.0,30.00,SSW,192,0.0,0.0,69,0.00,,,0.02,,2013-01-12 22:03:00,
2013-01-12 17:12:00,77.0,66.0,30.00,SSW,192,0.0,0.0,69,0.00,,,0.02,,2013-01-12 22:12:00,
2013-01-12 17:23:00,76.0,66.0,30.00,North,360,0.0,0.0,72,0.00,,,0.02,,2013-01-12 22:23:00,
2013-01-12 17:33:00,75.0,66.0,29.99,North,360,0.0,0.0,73,0.00,,,0.02,,2013-01-12 22:33:00,
2013-01-12 17:43:00,75.0,66.0,29.99,North,360,0.0,0.0,73,0.00,,,0.02,,2013-01-12 22:43:00,
2013-01-12 17:53:00,75.0,67.0,30.00,North,360,0.0,0.0,75,0.00,,,0.02,,2013-01-12 22:53:00,
2013-01-12 18:03:00,74.0,66.0,30.00,North,360,0.0,0.0,77,0.00,,,0.02,,2013-01-12 23:03:00,
2013-01-12 18:12:00,73.0,65.0,30.00,North,360,0.0,0.0,77,0.00,,,0.02,,2013-01-12 23:12:00,
2013-01-12 18:22:00,73.0,65.0,30.00,North,360,0.0,0.0,77,0.00,,,0.02,,2013-01-12 23:22:00,
2013-01-12 18:33:00,72.0,65.0,30.00,North,360,0.0,0.0,80,0.00,,,0.02,,2013-01-12 23:33:00,
2013-01-12 18:43:00,72.0,65.0,30.00,North,360,0.0,0.0,80,0.00,,,0.02,,2013-01-12 23:43:00,
2013-01-12 18:53:00,72.0,66.0,30.01,North,360,0.0,0.0,81,0.00,,,0.02,,2013-01-12 23:53:00,
2013-01-12 19:03:00,71.0,65.0,30.01,North,360,0.0,0.0,82,0.00,,,0.02,,2013-01-13 00:03:00,
2013-01-12 19:12:00,71.0,65.0,30.01,North,360,0.0,0.0,82,0.00,,,0.02,,2013-01-13 00:12:00,
2013-01-12 19:23:00,71.0,66.0,30.00,North,360,0.0,0.0,83,0.00,,,0.02,,2013-01-13 00:23:00,
2013-01-12 19:33:00,70.0,65.0,30.00,North,360,0.0,0.0,84,0.00,,,0.02,,2013-01-13 00:33:00,
2013-01-12 19:43:00,70.0,65.0,30.00,North,360,0.0,0.0,84,0.00,,,0.02,,2013-01-13 00:43:00,
2013-01-12 19:53:00,70.0,65.0,30.00,North,360,0.0,0.0,85,0.00,,,0.02,,2013-01-13 00:53:00,
2013-01-12 20:03:00,69.0,64.0,30.00,North,360,0.0,0.0,85,0.00,,,0.02,,2013-01-13 01:03:00,
2013-01-12 20:12:00,69.0,64.0,30.00,North,360,0.0,0.0,85,0.00,,,0.02,,2013-01-13 01:12:00,
2013-01-12 20:23:00,69.0,65.0,30.00,North,360,0.0,0.0,86,0.00,,,0.02,,2013-01-13 01:23:00,
2013-01-12 20:33:00,69.0,65.0,29.99,North,360,0.0,0.0,87,0.00,,,0.02,,2013-01-13 01:33:00,
2013-01-12 20:43:00,69.0,65.0,29.99,North,360,0.0,0.0,87,0.00,,,0.02,,2013-01-13 01:43:00,
2013-01-12 20:53:00,68.0,64.0,29.99,North,360,0.0,0.0,88,0.00,,,0.02,,2013-01-13 01:53:00,
2013-01-12 21:02:00,68.0,65.0,29.99,North,360,0.0,0.0,89,0.00,,,0.02,,2013-01-13 02:02:00,
2013-01-12 21:12:00,68.0,65.0,29.99,North,360,0.0,0.0,89,0.00,,,0.02,,2013-01-13 02:12:00,
2013-01-12 21:22:00,68.0,65.0,29.98,North,360,0.0,0.0,90,0.00,,,0.02,,2013-01-13 02:22:00,
2013-01-12 21:33:00,68.0,65.0,29.98,North,360,0.0,0.0,90,0.00,,,0.02,,2013-01-13 02:33:00,
2013-01-12 21:43:00,68.0,65.0,29.98,North,360,0.0,0.0,90,0.00,,,0.02,,2013-01-13 02:43:00,
2013-01-12 21:53:00,68.0,65.0,29.98,North,360,0.0,0.0,90,0.00,,,0.02,,2013-01-13 02:53:00,
2013-01-12 22:02:00,68.0,65.0,29.98,North,360,0.0,0.0,91,0.00,,,0.02,,2013-01-13 03:02:00,
2013-01-12 22:12:00,68.0,65.0,29.98,North,360,0.0,0.0,91,0.00,,,0.02,,2013-01-13 03:12:00,
2013-01-12 22:22:00,68.0,65.0,29.98,North,360,0.0,0.0,91,0.00,,,0.02,,2013-01-13 03:22:00,
2013-01-12 22:33:00,68.0,66.0,29.98,North,360,0.0,0.0,92,0.00,,,0.02,,2013-01-13 03:33:00,
2013-01-12 22:43:00,68.0,66.0,29.98,North,360,0.0,0.0,92,0.00,,,0.02,,2013-01-13 03:43:00,
2013-01-12 22:53:00,68.0,66.0,29.99,North,360,0.0,0.0,92,0.00,,,0.02,,2013-01-13 03:53:00,
2013-01-12 23:02:00,68.0,66.0,29.98,North,360,0.0,0.0,92,0.00,,,0.02,,2013-01-13 04:02:00,
2013-01-12 23:12:00,68.0,66.0,29.98,North,360,0.0,0.0,92,0.00,,,0.02,,2013-01-13 04:12:00,
2013-01-12 23:22:00,67.0,65.0,29.98,North,360,0.0,0.0,92,0.00,,,0.02,,2013-01-13 04:22:00,
2013-01-12 23:33:00,68.0,66.0,29.98,North,360,0.0,1.0,93,0.00,,,0.02,,2013-01-13 04:33:00,
2013-01-12 23:42:00,68.0,66.0,29.98,North,360,0.0,1.0,93,0.00,,,0.02,,2013-01-13 04:42:00,
2013-01-12 23:53:00,69.0,66.0,29.98,South,181,2.0,2.0,90,0.00,,,0.02,,2013-01-13 04:53:00,